SWR77 LTBJ-LLBG

Flight info

Callsign SWR77
Flight time 1h 22m
Altitude 37000
Route OKESA1T/34L OKESA UG80 BANRO UN128 RDS UL609 ALKIS L609 ZUKKO AMMOS1A
Aircraft A333/H-SDE3GHIJ2J3J5M1RVWXY/LB2D1

Departure

Time 2026-05-06 04:46
Airport Adnan Menderes International Airport (LTBJ)

Arrival

Time 2026-05-06 06:08
Airport Ben Gurion International Airport (LLBG)
Time Latitude Longitude Altitude Speed Heading
2026-05-06 04:30 38.29495 27.14976 429 ft 0 kts 257°
2026-05-06 04:37 38.29499 27.14993 429 ft 4 kts 251°
2026-05-06 04:37 38.29509 27.15024 429 ft 4 kts 239°
2026-05-06 04:37 38.29525 27.15052 429 ft 4 kts 226°
2026-05-06 04:37 38.29545 27.15075 429 ft 4 kts 214°
2026-05-06 04:38 38.29568 27.15092 429 ft 4 kts 204°
2026-05-06 04:38 38.29593 27.15104 429 ft 4 kts 193°
2026-05-06 04:38 38.29620 27.15109 429 ft 4 kts 182°
2026-05-06 04:38 38.29644 27.15108 429 ft 1 kts 167°
2026-05-06 04:41 38.29592 27.15124 429 ft 14 kts 165°
2026-05-06 04:41 38.29491 27.15154 429 ft 15 kts 166°
2026-05-06 04:42 38.29392 27.15211 429 ft 17 kts 134°
2026-05-06 04:42 38.29288 27.15272 429 ft 18 kts 168°
2026-05-06 04:42 38.29163 27.15304 429 ft 19 kts 168°
2026-05-06 04:42 38.29035 27.15340 429 ft 18 kts 167°
2026-05-06 04:43 38.28908 27.15377 429 ft 19 kts 167°
2026-05-06 04:43 38.28780 27.15414 429 ft 18 kts 165°
2026-05-06 04:43 38.28663 27.15449 429 ft 18 kts 167°
2026-05-06 04:43 38.28594 27.15485 429 ft 11 kts 122°
2026-05-06 04:44 38.28597 27.15591 429 ft 12 kts 79°
2026-05-06 04:44 38.28623 27.15685 429 ft 11 kts 37°
2026-05-06 04:44 38.28700 27.15689 429 ft 11 kts 346°
2026-05-06 04:44 38.28731 27.15680 429 ft 2 kts 347°
2026-05-06 04:45 38.28907 27.15625 429 ft 54 kts 346°
2026-05-06 04:45 38.29446 27.15459 429 ft 105 kts 346°
2026-05-06 04:45 38.30318 27.15194 465 ft 146 kts 347°
2026-05-06 04:45 38.31282 27.14911 1010 ft 140 kts 347°
2026-05-06 04:46 38.32223 27.14643 1474 ft 141 kts 347°
2026-05-06 04:46 38.33188 27.14374 1941 ft 143 kts 347°
2026-05-06 04:46 38.34195 27.14101 2294 ft 155 kts 347°
2026-05-06 04:46 38.35325 27.13782 2541 ft 177 kts 347°
2026-05-06 04:47 38.36599 27.13454 2878 ft 197 kts 348°
2026-05-06 04:47 38.38011 27.13121 3349 ft 213 kts 349°
2026-05-06 04:47 38.39512 27.12807 3989 ft 224 kts 352°
2026-05-06 04:47 38.41103 27.12793 4629 ft 237 kts
2026-05-06 04:48 38.42685 27.13582 5163 ft 255 kts 34°
2026-05-06 04:48 38.43867 27.15306 5945 ft 263 kts 62°
2026-05-06 04:48 38.44297 27.17591 6803 ft 272 kts 88°
2026-05-06 04:48 38.43873 27.19969 7575 ft 283 kts 114°
2026-05-06 04:49 38.42655 27.22002 8125 ft 301 kts 136°
2026-05-06 04:49 38.40810 27.23402 8053 ft 314 kts 159°
2026-05-06 04:49 38.38734 27.24240 8221 ft 315 kts 161°
2026-05-06 04:49 38.36727 27.25255 9183 ft 310 kts 155°
2026-05-06 04:50 38.34810 27.26462 10240 ft 305 kts 150°
2026-05-06 04:50 38.32908 27.27838 10661 ft 328 kts 147°
2026-05-06 04:50 38.30898 27.29470 10755 ft 357 kts 145°
2026-05-06 04:50 38.28805 27.31278 11449 ft 364 kts 144°
2026-05-06 04:51 38.26701 27.33139 12178 ft 372 kts 143°
2026-05-06 04:51 38.24575 27.35052 12939 ft 378 kts 143°
2026-05-06 04:51 38.22421 27.37009 13729 ft 382 kts 143°
2026-05-06 04:51 38.20181 27.38874 14471 ft 388 kts 152°
2026-05-06 04:52 38.17631 27.40039 15192 ft 393 kts 169°
2026-05-06 04:52 38.14906 27.40305 15932 ft 394 kts 182°
2026-05-06 04:52 38.12174 27.40271 16643 ft 399 kts 183°
2026-05-06 04:52 38.09348 27.40220 17372 ft 403 kts 184°
2026-05-06 04:53 38.06563 27.40152 18060 ft 407 kts 184°
2026-05-06 04:53 38.04671 27.40100 18516 ft 409 kts 184°
2026-05-06 04:53 38.01800 27.40012 19203 ft 413 kts 184°
2026-05-06 04:53 37.98913 27.39919 19845 ft 418 kts 184°
2026-05-06 04:54 37.95988 27.39823 20471 ft 422 kts 185°
2026-05-06 04:54 37.93034 27.39721 21080 ft 426 kts 185°
2026-05-06 04:54 37.90058 27.39653 21692 ft 432 kts 180°
2026-05-06 04:54 37.87072 27.40352 22221 ft 440 kts 165°
2026-05-06 04:55 37.84140 27.41534 22831 ft 444 kts 163°
2026-05-06 04:55 37.81193 27.42758 23372 ft 448 kts 163°
2026-05-06 04:55 37.78214 27.44000 23886 ft 452 kts 163°
2026-05-06 04:55 37.75220 27.45251 24437 ft 455 kts 163°
2026-05-06 04:56 37.72197 27.46514 24927 ft 459 kts 163°
2026-05-06 04:56 37.69190 27.47770 25411 ft 463 kts 163°
2026-05-06 04:56 37.66114 27.49054 25886 ft 467 kts 163°
2026-05-06 04:56 37.63012 27.50348 26349 ft 470 kts 163°
2026-05-06 04:57 37.59896 27.51648 26798 ft 474 kts 163°
2026-05-06 04:57 37.56749 27.52962 27250 ft 477 kts 163°
2026-05-06 04:57 37.53575 27.54285 27673 ft 481 kts 163°
2026-05-06 04:57 37.50388 27.55613 28098 ft 484 kts 163°
2026-05-06 04:58 37.47165 27.56956 28470 ft 489 kts 163°
2026-05-06 04:58 37.43928 27.58305 28909 ft 491 kts 163°
2026-05-06 04:58 37.40672 27.59659 29284 ft 494 kts 163°
2026-05-06 04:58 37.37397 27.61021 29663 ft 498 kts 163°
2026-05-06 04:59 37.34098 27.62392 30042 ft 501 kts 163°
2026-05-06 04:59 37.30773 27.63773 30433 ft 503 kts 164°
2026-05-06 04:59 37.27436 27.65160 30825 ft 505 kts 164°
2026-05-06 04:59 37.24093 27.66546 31290 ft 504 kts 164°
2026-05-06 05:00 37.20798 27.67914 31822 ft 503 kts 164°
2026-05-06 05:00 37.17484 27.69289 32316 ft 501 kts 164°
2026-05-06 05:00 37.14182 27.70658 32775 ft 500 kts 164°
2026-05-06 05:00 37.10856 27.72034 33244 ft 499 kts 164°
2026-05-06 05:01 37.07562 27.73396 33739 ft 497 kts 164°
2026-05-06 05:01 37.04315 27.74738 34182 ft 495 kts 165°
2026-05-06 05:01 37.01005 27.76106 34575 ft 495 kts 165°
2026-05-06 05:01 36.97775 27.77438 35015 ft 493 kts 165°
2026-05-06 05:02 36.94520 27.78779 35386 ft 493 kts 165°
2026-05-06 05:02 36.91259 27.80122 35757 ft 492 kts 165°
2026-05-06 05:02 36.87996 27.81464 36121 ft 491 kts 165°
2026-05-06 05:02 36.84752 27.82798 36494 ft 490 kts 165°
2026-05-06 05:03 36.81518 27.84127 36861 ft 489 kts 165°
2026-05-06 05:03 36.78264 27.85461 37014 ft 493 kts 165°
2026-05-06 05:03 36.74987 27.86802 37049 ft 496 kts 165°
2026-05-06 05:04 36.68443 27.89707 37050 ft 500 kts 161°
2026-05-06 05:04 36.62026 27.93024 37040 ft 496 kts 160°
2026-05-06 05:05 36.55683 27.96320 37032 ft 491 kts 160°
2026-05-06 05:05 36.49432 27.99576 37046 ft 488 kts 160°
2026-05-06 05:06 36.43231 28.03021 37052 ft 488 kts 159°
2026-05-06 05:06 36.37067 28.06636 37047 ft 493 kts 151°
2026-05-06 05:06 36.34282 28.09161 37050 ft 497 kts 139°
2026-05-06 05:07 36.31931 28.12304 37052 ft 499 kts 127°
2026-05-06 05:07 36.27833 28.19208 37053 ft 501 kts 126°
2026-05-06 05:08 36.23724 28.26186 37052 ft 501 kts 126°
2026-05-06 05:08 36.19634 28.33152 37052 ft 499 kts 125°
2026-05-06 05:09 36.15561 28.40101 37053 ft 497 kts 125°
2026-05-06 05:09 36.11501 28.47018 37053 ft 496 kts 126°
2026-05-06 05:10 36.07438 28.53923 37054 ft 497 kts 126°
2026-05-06 05:10 36.03401 28.60787 37054 ft 497 kts 126°
2026-05-06 05:11 35.99341 28.67695 37054 ft 497 kts 126°
2026-05-06 05:11 35.95277 28.74614 37055 ft 497 kts 126°
2026-05-06 05:12 35.91191 28.81517 37061 ft 497 kts 126°
2026-05-06 05:12 35.87111 28.88408 37064 ft 497 kts 126°
2026-05-06 05:13 35.83037 28.95286 37064 ft 495 kts 126°
2026-05-06 05:13 35.78977 29.02136 37065 ft 494 kts 127°
2026-05-06 05:14 35.74948 29.08927 37059 ft 494 kts 127°
2026-05-06 05:14 35.70889 29.15763 37058 ft 494 kts 127°
2026-05-06 05:15 35.66834 29.22580 37058 ft 494 kts 127°
2026-05-06 05:15 35.62773 29.29397 37058 ft 494 kts 127°
2026-05-06 05:16 35.58714 29.36200 37058 ft 494 kts 127°
2026-05-06 05:16 35.54644 29.43008 37058 ft 494 kts 127°
2026-05-06 05:17 35.50577 29.49800 37058 ft 494 kts 127°
2026-05-06 05:17 35.46504 29.56590 37058 ft 493 kts 127°
2026-05-06 05:18 35.43119 29.62224 37057 ft 493 kts 127°
2026-05-06 05:18 35.38382 29.70091 37056 ft 492 kts 127°
2026-05-06 05:19 35.34308 29.76844 37056 ft 492 kts 127°
2026-05-06 05:19 35.30229 29.83593 37056 ft 493 kts 127°
2026-05-06 05:20 35.26144 29.90339 37057 ft 494 kts 127°
2026-05-06 05:20 35.22046 29.97096 37056 ft 494 kts 128°
2026-05-06 05:21 35.17855 30.03709 37056 ft 494 kts 130°
2026-05-06 05:21 35.13533 30.10224 37055 ft 492 kts 131°
2026-05-06 05:22 35.09247 30.16696 37056 ft 491 kts 131°
2026-05-06 05:22 35.04953 30.23194 37056 ft 491 kts 131°
2026-05-06 05:23 35.00654 30.29709 37057 ft 492 kts 131°
2026-05-06 05:23 34.94205 30.39483 37057 ft 494 kts 131°
2026-05-06 05:24 34.89898 30.46012 37056 ft 494 kts 131°
2026-05-06 05:24 34.85588 30.52536 37056 ft 494 kts 131°
2026-05-06 05:25 34.81284 30.59048 37056 ft 493 kts 131°
2026-05-06 05:25 34.76986 30.65541 37056 ft 492 kts 131°
2026-05-06 05:26 34.73420 30.70921 37056 ft 491 kts 131°
2026-05-06 05:26 34.69127 30.77391 37056 ft 491 kts 131°
2026-05-06 05:27 34.64129 30.84909 37056 ft 492 kts 131°
2026-05-06 05:27 34.59856 30.91460 37056 ft 493 kts 130°
2026-05-06 05:28 34.55685 30.98073 37058 ft 493 kts 130°
2026-05-06 05:28 34.51519 31.04698 37059 ft 493 kts 130°
2026-05-06 05:29 34.47356 31.11322 37060 ft 493 kts 130°
2026-05-06 05:29 34.43221 31.17900 37059 ft 493 kts 130°
2026-05-06 05:30 34.39063 31.24512 37058 ft 493 kts 130°
2026-05-06 05:30 34.35605 31.30010 37058 ft 493 kts 130°
2026-05-06 05:31 34.30734 31.37741 37058 ft 494 kts 130°
2026-05-06 05:31 34.27274 31.43228 37058 ft 494 kts 130°
2026-05-06 05:32 34.23097 31.49842 37057 ft 494 kts 130°
2026-05-06 05:32 34.18241 31.57519 37057 ft 495 kts 130°
2026-05-06 05:33 34.14737 31.63049 37057 ft 494 kts 131°
2026-05-06 05:33 34.10579 31.69603 37057 ft 495 kts 131°
2026-05-06 05:34 34.06388 31.76197 37057 ft 495 kts 131°
2026-05-06 05:34 34.02195 31.82783 37057 ft 495 kts 131°
2026-05-06 05:35 33.97998 31.89363 37057 ft 495 kts 131°
2026-05-06 05:35 33.93785 31.95955 36878 ft 499 kts 131°
2026-05-06 05:36 33.91654 31.99282 36631 ft 502 kts 131°
2026-05-06 05:36 33.89513 32.02624 36380 ft 502 kts 131°
2026-05-06 05:36 33.87415 32.05896 36133 ft 500 kts 131°
2026-05-06 05:36 33.85251 32.09153 35882 ft 496 kts 133°
2026-05-06 05:37 33.83069 32.12365 35631 ft 493 kts 133°
2026-05-06 05:37 33.80900 32.15555 35380 ft 491 kts 133°
2026-05-06 05:37 33.78736 32.18745 35129 ft 490 kts 132°
2026-05-06 05:37 33.76608 32.21884 34881 ft 489 kts 132°
2026-05-06 05:38 33.74458 32.25058 34631 ft 489 kts 132°
2026-05-06 05:38 33.72314 32.28226 34382 ft 489 kts 132°
2026-05-06 05:38 33.70160 32.31409 34132 ft 490 kts 132°
2026-05-06 05:38 33.68012 32.34588 33882 ft 490 kts 132°
2026-05-06 05:39 33.65863 32.37767 33633 ft 490 kts 132°
2026-05-06 05:39 33.63715 32.40945 33382 ft 488 kts 132°
2026-05-06 05:39 33.61587 32.44095 33132 ft 485 kts 132°
2026-05-06 05:39 33.59465 32.47235 32881 ft 482 kts 132°
2026-05-06 05:40 33.57357 32.50355 32629 ft 479 kts 132°
2026-05-06 05:40 33.55264 32.53449 32379 ft 476 kts 132°
2026-05-06 05:40 33.53186 32.56521 32127 ft 473 kts 132°
2026-05-06 05:40 33.51144 32.59538 31880 ft 471 kts 132°
2026-05-06 05:41 33.49083 32.62581 31628 ft 468 kts 132°
2026-05-06 05:41 33.47033 32.65606 31378 ft 467 kts 132°
2026-05-06 05:41 33.44991 32.68617 31127 ft 464 kts 132°
2026-05-06 05:41 33.42957 32.71615 30876 ft 462 kts 132°
2026-05-06 05:42 33.40931 32.74599 30625 ft 460 kts 132°
2026-05-06 05:42 33.38915 32.77567 30375 ft 458 kts 132°
2026-05-06 05:42 33.36906 32.80521 30124 ft 456 kts 132°
2026-05-06 05:42 33.34908 32.83458 29873 ft 454 kts 132°
2026-05-06 05:43 33.32919 32.86380 29622 ft 452 kts 133°
2026-05-06 05:43 33.30940 32.89283 29371 ft 450 kts 132°
2026-05-06 05:43 33.28958 32.92192 29120 ft 450 kts 133°
2026-05-06 05:43 33.26984 32.95084 28870 ft 449 kts 133°
2026-05-06 05:44 33.25010 32.97972 28619 ft 448 kts 133°
2026-05-06 05:44 33.23046 33.00845 28369 ft 446 kts 133°
2026-05-06 05:44 33.21082 33.03713 28118 ft 445 kts 133°
2026-05-06 05:44 33.19141 33.06596 27867 ft 444 kts 131°
2026-05-06 05:45 33.17239 33.09488 27617 ft 442 kts 131°
2026-05-06 05:45 33.15346 33.12374 27366 ft 441 kts 131°
2026-05-06 05:45 33.13463 33.15249 27116 ft 440 kts 131°
2026-05-06 05:45 33.11582 33.18124 26865 ft 439 kts 131°
2026-05-06 05:46 33.09704 33.20997 26614 ft 438 kts 131°
2026-05-06 05:46 33.07835 33.23857 26364 ft 436 kts 131°
2026-05-06 05:46 33.06000 33.26667 26117 ft 435 kts 131°
2026-05-06 05:46 33.04141 33.29516 25866 ft 433 kts 131°
2026-05-06 05:47 33.02291 33.32348 25614 ft 432 kts 131°
2026-05-06 05:47 33.00450 33.35169 25364 ft 430 kts 131°
2026-05-06 05:47 32.98610 33.37987 25116 ft 429 kts 131°
2026-05-06 05:47 32.96781 33.40788 24643 ft 429 kts 131°
2026-05-06 05:48 32.94950 33.43588 24088 ft 430 kts 131°
2026-05-06 05:48 32.93111 33.46402 23533 ft 430 kts 131°
2026-05-06 05:48 32.91267 33.49222 22971 ft 431 kts 131°
2026-05-06 05:48 32.89426 33.52036 22412 ft 431 kts 131°
2026-05-06 05:49 32.87606 33.54817 21882 ft 431 kts 131°
2026-05-06 05:49 32.85774 33.57616 21451 ft 427 kts 131°
2026-05-06 05:49 32.83948 33.60404 21052 ft 423 kts 131°
2026-05-06 05:49 32.82089 33.63103 20562 ft 419 kts 136°
2026-05-06 05:50 32.80091 33.65590 20115 ft 415 kts 137°
2026-05-06 05:50 32.78090 33.68038 19709 ft 411 kts 137°
2026-05-06 05:50 32.76096 33.70479 19296 ft 408 kts 137°
2026-05-06 05:50 32.74117 33.72903 18812 ft 406 kts 137°
2026-05-06 05:51 32.72164 33.75298 18384 ft 403 kts 137°
2026-05-06 05:51 32.70223 33.77681 18008 ft 399 kts 137°
2026-05-06 05:51 32.68295 33.80048 17525 ft 397 kts 137°
2026-05-06 05:51 32.66410 33.82364 17084 ft 395 kts 137°
2026-05-06 05:52 32.64515 33.84693 16700 ft 391 kts 137°
2026-05-06 05:52 32.62634 33.87003 16311 ft 387 kts 137°
2026-05-06 05:52 32.60760 33.89303 15867 ft 384 kts 137°
2026-05-06 05:52 32.58911 33.91573 15406 ft 383 kts 137°
2026-05-06 05:53 32.57070 33.93831 14992 ft 380 kts 137°
2026-05-06 05:53 32.55252 33.96075 14774 ft 371 kts 136°
2026-05-06 05:53 32.53471 33.98292 14246 ft 372 kts 136°
2026-05-06 05:53 32.51683 34.00521 13782 ft 371 kts 136°
2026-05-06 05:54 32.49941 34.02696 13351 ft 369 kts 136°
2026-05-06 05:54 32.48187 34.04883 12991 ft 364 kts 136°
2026-05-06 05:54 32.46438 34.07063 12573 ft 362 kts 136°
2026-05-06 05:54 32.44705 34.09224 12137 ft 360 kts 136°
2026-05-06 05:55 32.42992 34.11376 11729 ft 357 kts 134°
2026-05-06 05:55 32.41471 34.13676 11457 ft 352 kts 127°
2026-05-06 05:55 32.40121 34.16035 11373 ft 339 kts 126°
2026-05-06 05:55 32.38840 34.18308 11292 ft 326 kts 126°
2026-05-06 05:56 32.37608 34.20503 10791 ft 313 kts 126°
2026-05-06 05:56 32.36449 34.22569 10047 ft 297 kts 125°
2026-05-06 05:56 32.35336 34.24557 9296 ft 284 kts 124°
2026-05-06 05:56 32.34270 34.26464 8545 ft 272 kts 124°
2026-05-06 05:57 32.33251 34.28295 8281 ft 252 kts 125°
2026-05-06 05:57 32.32288 34.29966 8210 ft 244 kts 125°
2026-05-06 05:57 32.31349 34.31600 8129 ft 236 kts 125°
2026-05-06 05:57 32.30446 34.33171 8040 ft 227 kts 125°
2026-05-06 05:58 32.29563 34.34707 7872 ft 225 kts 126°
2026-05-06 05:58 32.28687 34.36227 7736 ft 222 kts 126°
2026-05-06 05:58 32.27822 34.37729 7621 ft 220 kts 126°
2026-05-06 05:58 32.26961 34.39224 7508 ft 220 kts 126°
2026-05-06 05:59 32.26099 34.40719 7393 ft 220 kts 126°
2026-05-06 05:59 32.25239 34.42209 7278 ft 219 kts 126°
2026-05-06 05:59 32.24379 34.43701 7165 ft 220 kts 126°
2026-05-06 05:59 32.23516 34.45195 7051 ft 219 kts 126°
2026-05-06 06:00 32.22649 34.46677 6915 ft 220 kts 126°
2026-05-06 06:00 32.21792 34.48156 6693 ft 221 kts 126°
2026-05-06 06:00 32.20920 34.49661 6517 ft 224 kts 126°
2026-05-06 06:00 32.20030 34.51196 6446 ft 228 kts 126°
2026-05-06 06:01 32.19123 34.52758 6374 ft 232 kts 126°
2026-05-06 06:01 32.18211 34.54329 6298 ft 228 kts 126°
2026-05-06 06:01 32.17331 34.55845 6209 ft 219 kts 126°
2026-05-06 06:01 32.16478 34.57338 5940 ft 219 kts 123°
2026-05-06 06:02 32.15712 34.58864 5692 ft 217 kts 122°
2026-05-06 06:02 32.15189 34.59911 5286 ft 229 kts 122°
2026-05-06 06:02 32.14352 34.61587 4668 ft 244 kts 122°
2026-05-06 06:02 32.13468 34.63361 4048 ft 258 kts 121°
2026-05-06 06:03 32.12537 34.65200 3418 ft 259 kts 122°
2026-05-06 06:03 32.11640 34.66936 3095 ft 238 kts 124°
2026-05-06 06:03 32.10408 34.69022 3002 ft 223 kts 124°
2026-05-06 06:03 32.09862 34.70019 2989 ft 214 kts 123°
2026-05-06 06:04 32.09106 34.71471 2987 ft 199 kts 122°
2026-05-06 06:04 32.08645 34.72379 2914 ft 192 kts 122°
2026-05-06 06:04 32.07757 34.74150 2571 ft 182 kts 122°
2026-05-06 06:04 32.07127 34.75411 2321 ft 174 kts 122°
2026-05-06 06:05 32.06533 34.76604 2108 ft 162 kts 122°
2026-05-06 06:05 32.05980 34.77713 1901 ft 152 kts 123°
2026-05-06 06:05 32.05459 34.78756 1689 ft 147 kts 123°
2026-05-06 06:05 32.04939 34.79800 1480 ft 147 kts 123°
2026-05-06 06:06 32.04430 34.80829 1304 ft 143 kts 124°
2026-05-06 06:06 32.03928 34.81851 1109 ft 145 kts 123°
2026-05-06 06:06 32.03428 34.82900 897 ft 147 kts 123°
2026-05-06 06:06 32.02911 34.83933 697 ft 145 kts 124°
2026-05-06 06:07 32.02563 34.84597 563 ft 141 kts 125°
2026-05-06 06:07 32.02045 34.85568 382 ft 140 kts 124°
2026-05-06 06:07 32.01555 34.86564 215 ft 141 kts 123°
2026-05-06 06:07 32.01084 34.87527 153 ft 117 kts 126°
2026-05-06 06:08 32.00744 34.88193 152 ft 37 kts 122°
2026-05-06 06:08 32.00661 34.88345 152 ft 32 kts 124°
2026-05-06 06:08 32.00559 34.88539 152 ft 29 kts 122°
2026-05-06 06:08 32.00409 34.88694 152 ft 19 kts 154°
2026-05-06 06:09 32.00262 34.88731 152 ft 11 kts 216°
2026-05-06 06:09 32.00247 34.88670 152 ft 14 kts 284°
2026-05-06 06:09 32.00336 34.88499 152 ft 18 kts 305°
2026-05-06 06:09 32.00392 34.88402 152 ft 13 kts 296°
2026-05-06 06:10 32.00338 34.88309 152 ft 17 kts 205°
2026-05-06 06:10 32.00260 34.88264 152 ft 22 kts 208°
2026-05-06 06:10 32.00097 34.88098 152 ft 24 kts 223°
2026-05-06 06:10 31.99995 34.87995 152 ft 21 kts 249°
2026-05-06 06:11 32.00072 34.87791 152 ft 31 kts 342°
2026-05-06 06:11 32.00296 34.87758 152 ft 32 kts 359°
2026-05-06 06:11 32.00477 34.87742 152 ft 19 kts 335°
2026-05-06 06:11 32.00589 34.87663 152 ft 18 kts 312°
2026-05-06 06:12 32.00716 34.87577 152 ft 24 kts 328°
2026-05-06 06:12 32.00805 34.87435 152 ft 21 kts 294°
2026-05-06 06:12 32.00823 34.87290 152 ft 17 kts 259°
2026-05-06 06:12 32.00780 34.87165 152 ft 19 kts 224°
2026-05-06 06:13 32.00651 34.87133 152 ft 18 kts 180°
2026-05-06 06:13 32.00692 34.87273 152 ft 7 kts 247°
2026-05-06 06:13 32.00680 34.87242 152 ft 4 kts 247°
2026-05-06 06:13 32.00697 34.87289 152 ft 0 kts 247°
2026-05-06 08:32 32.00766 34.87292 152 ft 0 kts 246°